| time (UTC) | temp C | wind direction | speed KPH | gust KPH | rain 1hr cm | rain 24hr cm | rain mn cm | humidity % | barometer mb |
| 20260902215002 | 31 | 118 | 0.0 | 0.0 | 0.00 | 0.00 | 0.00 | 28 | 1013.7 |
| 20260902214456 | 31 | 101 | 0.0 | 0.0 | 0.00 | 0.00 | 0.00 | 28 | 1013.6 |
| 20260902213453 | 31 | 90 | 0.0 | 4.8 | 0.00 | 0.00 | 0.00 | 28 | 1013.8 |
| 20260902212952 | 31 | 88 | 0.0 | 4.8 | 0.00 | 0.00 | 0.00 | 28 | 1013.9 |
| 20260902212456 | 31 | 244 | 0.0 | 0.0 | 0.00 | 0.00 | 0.00 | 31 | 1013.9 |
| 20260902211951 | 31 | 333 | 0.0 | 0.0 | 0.00 | 0.00 | 0.00 | 29 | 1013.9 |
| 20260902211450 | 31 | 49 | 0.0 | 0.0 | 0.00 | 0.00 | 0.00 | 30 | 1014.0 |
| 20260902210952 | 31 | 177 | 0.0 | 0.0 | 0.00 | 0.00 | 0.00 | 32 | 1014.0 |
| 20260902210449 | 31 | 105 | 0.0 | 11.3 | 0.00 | 0.00 | 0.00 | 28 | 1014.3 |
| 20260902205947 | 31 | 146 | 0.0 | 11.3 | 0.00 | 0.00 | 0.00 | 31 | 1014.3 |
| 20260902204444 | 31 | 41 | 0.0 | 3.2 | 0.00 | 0.00 | 0.00 | 27 | 1014.6 |
| 20260902203944 | 31 | 171 | 0.0 | 4.8 | 0.00 | 0.00 | 0.00 | 28 | 1014.7 |
| 20260902203443 | 31 | 138 | 0.0 | 4.8 | 0.00 | 0.00 | 0.00 | 29 | 1014.8 |
| 20260902202939 | 31 | 76 | 0.0 | 4.8 | 0.00 | 0.00 | 0.00 | 30 | 1014.8 |
| 20260902202438 | 31 | 160 | 0.0 | 0.0 | 0.00 | 0.00 | 0.00 | 29 | 1015.1 |
| 20260902200939 | 30 | 127 | 0.0 | 0.0 | 0.00 | 0.00 | 0.00 | 28 | 1015.3 |
| 20260902200439 | 31 | 131 | 0.0 | 0.0 | 0.00 | 0.00 | 0.00 | 30 | 1015.3 |
| 20260902195939 | 31 | 115 | 0.0 | 0.0 | 0.00 | 0.00 | 0.00 | 29 | 1015.3 |
| 20260902195439 | 30 | 157 | 0.0 | 0.0 | 0.00 | 0.00 | 0.00 | 33 | 1015.4 |
| 20260902194938 | 30 | 225 | 0.0 | 0.0 | 0.00 | 0.00 | 0.00 | 28 | 1015.4 |
| 20260902194439 | 30 | 263 | 0.0 | 0.0 | 0.00 | 0.00 | 0.00 | 28 | 1015.5 |
| 20260902193938 | 30 | 319 | 0.0 | 0.0 | 0.00 | 0.00 | 0.00 | 29 | 1015.5 |
| 20260902193439 | 30 | 321 | 0.0 | 0.0 | 0.00 | 0.00 | 0.00 | 30 | 1015.7 |
| 20260902192938 | 30 | 66 | 0.0 | 1.6 | 0.00 | 0.00 | 0.00 | 28 | 1015.8 |
| 20260902192439 | 29 | 112 | 0.0 | 4.8 | 0.00 | 0.00 | 0.00 | 29 | 1015.8 |
| 20260902191939 | 29 | 112 | 0.0 | 4.8 | 0.00 | 0.00 | 0.00 | 29 | 1015.9 |
| 20260902191438 | 29 | 112 | 0.0 | 0.0 | 0.00 | 0.00 | 0.00 | 30 | 1015.9 |
| 20260902190938 | 29 | 112 | 0.0 | 0.0 | 0.00 | 0.00 | 0.00 | 30 | 1016.0 |
| 20260902185939 | 28 | 113 | 0.0 | 0.0 | 0.00 | 0.00 | 0.00 | 30 | 1016.1 |
| 20260902185439 | 28 | 113 | 0.0 | 0.0 | 0.00 | 0.00 | 0.00 | 32 | 1016.2 |
| 20260902184939 | 28 | 113 | 0.0 | 0.0 | 0.00 | 0.00 | 0.00 | 29 | 1016.2 |
| 20260902184441 | 28 | 148 | 0.0 | 0.0 | 0.00 | 0.00 | 0.00 | 30 | 1016.4 |
| 20260902183939 | 28 | 78 | 0.0 | 0.0 | 0.00 | 0.00 | 0.00 | 33 | 1016.4 |
| 20260902183436 | 28 | 78 | 0.0 | 0.0 | 0.00 | 0.00 | 0.00 | 31 | 1016.6 |
| 20260902182938 | 28 | 329 | 0.0 | 0.0 | 0.00 | 0.00 | 0.00 | 31 | 1016.6 |
| 20260902182434 | 28 | 331 | 0.0 | 0.0 | 0.00 | 0.00 | 0.00 | 31 | 1016.7 |
| 20260902181934 | 28 | 331 | 0.0 | 0.0 | 0.00 | 0.00 | 0.00 | 31 | 1016.8 |
| 20260902180935 | 28 | 5 | 0.0 | 0.0 | 0.00 | 0.00 | 0.00 | 30 | 1017.1 |
| 20260902180432 | 28 | 0 | 0.0 | 0.0 | 0.00 | 0.00 | 0.00 | 32 | 1017.2 |
| 20260902175932 | 28 | 69 | 0.0 | 0.0 | 0.00 | 0.00 | 0.00 | 32 | 1017.3 |
| 20260902175434 | 28 | 66 | 0.0 | 0.0 | 0.00 | 0.00 | 0.00 | 34 | 1017.5 |
| 20260902174927 | 27 | 66 | 0.0 | 0.0 | 0.00 | 0.00 | 0.00 | 33 | 1017.5 |
| 20260902174420 | 27 | 66 | 0.0 | 0.0 | 0.00 | 0.00 | 0.00 | 32 | 1017.5 |
| 20260902173915 | 27 | 66 | 0.0 | 0.0 | 0.00 | 0.00 | 0.00 | 32 | 1017.5 |
| 20260902173408 | 27 | 69 | 0.0 | 0.0 | 0.00 | 0.00 | 0.00 | 32 | 1017.5 |
| 20260902172904 | 27 | 66 | 0.0 | 0.0 | 0.00 | 0.00 | 0.00 | 34 | 1017.6 |
| 20260902172356 | 27 | 65 | 0.0 | 0.0 | 0.00 | 0.00 | 0.00 | 34 | 1017.6 |
| 20260902171850 | 27 | 65 | 0.0 | 0.0 | 0.00 | 0.00 | 0.00 | 34 | 1017.6 |
| 20260902170839 | 27 | 63 | 0.0 | 0.0 | 0.00 | 0.00 | 0.00 | 34 | 1017.8 |
| 20260902170332 | 26 | 64 | 0.0 | 0.0 | 0.00 | 0.00 | 0.00 | 34 | 1017.9 |
| 20260902165826 | 26 | 64 | 0.0 | 0.0 | 0.00 | 0.00 | 0.00 | 35 | 1017.9 |
| 20260902165320 | 26 | 64 | 0.0 | 8.0 | 0.00 | 0.00 | 0.00 | 35 | 1017.9 |
| 20260902164308 | 26 | 214 | 0.0 | 0.0 | 0.00 | 0.00 | 0.00 | 33 | 1017.9 |
| 20260902163802 | 26 | 214 | 0.0 | 0.0 | 0.00 | 0.00 | 0.00 | 37 | 1018.0 |
| 20260902163256 | 26 | 217 | 0.0 | 0.0 | 0.00 | 0.00 | 0.00 | 39 | 1018.0 |
| 20260902162750 | 25 | 217 | 0.0 | 3.2 | 0.00 | 0.00 | 0.00 | 38 | 1018.0 |
| 20260902162244 | 25 | 217 | 0.0 | 4.8 | 0.00 | 0.00 | 0.00 | 40 | 1018.1 |
| 20260902161740 | 25 | 217 | 0.0 | 4.8 | 0.00 | 0.00 | 0.00 | 41 | 1018.0 |
| 20260902161233 | 25 | 233 | 0.0 | 0.0 | 0.00 | 0.00 | 0.00 | 41 | 1018.0 |
| 20260902160726 | 25 | 234 | 0.0 | 1.6 | 0.00 | 0.00 | 0.00 | 42 | 1018.0 |
| 20260902160220 | 24 | 234 | 0.0 | 1.6 | 0.00 | 0.00 | 0.00 | 44 | 1018.1 |
| 20260902155714 | 24 | 234 | 0.0 | 0.0 | 0.00 | 0.00 | 0.00 | 45 | 1018.1 |
| 20260902155208 | 23 | 234 | 0.0 | 1.6 | 0.00 | 0.00 | 0.00 | 45 | 1018.1 |
| 20260902154156 | 23 | 234 | 0.0 | 0.0 | 0.00 | 0.00 | 0.00 | 48 | 1018.1 |
| 20260902153145 | 22 | 234 | 0.0 | 0.0 | 0.00 | 0.00 | 0.00 | 51 | 1018.1 |
| 20260902152639 | 22 | 234 | 0.0 | 0.0 | 0.00 | 0.00 | 0.00 | 53 | 1018.0 |
| 20260902152133 | 22 | 234 | 0.0 | 0.0 | 0.00 | 0.00 | 0.00 | 53 | 1018.1 |
| 20260902151628 | 22 | 234 | 0.0 | 0.0 | 0.00 | 0.00 | 0.00 | 55 | 1018.0 |
| 20260902151120 | 21 | 235 | 0.0 | 0.0 | 0.00 | 0.00 | 0.00 | 56 | 1018.1 |
| 20260902150616 | 21 | 235 | 0.0 | 0.0 | 0.00 | 0.00 | 0.00 | 57 | 1018.1 |
| 20260902150109 | 20 | 235 | 0.0 | 0.0 | 0.00 | 0.00 | 0.00 | 58 | 1018.1 |
| 20260902145604 | 20 | 235 | 0.0 | 0.0 | 0.00 | 0.00 | 0.00 | 58 | 1018.1 |
| 20260902145058 | 20 | 235 | 0.0 | 0.0 | 0.00 | 0.00 | 0.00 | 59 | 1018.1 |
| 20260902144550 | 20 | 235 | 1.6 | 6.4 | 0.00 | 0.00 | 0.00 | 60 | 1018.1 |
| 20260902144044 | 19 | 247 | 1.6 | 6.4 | 0.00 | 0.00 | 0.00 | 60 | 1018.2 |
| 20260902143032 | 18 | 240 | 0.0 | 0.0 | 0.00 | 0.00 | 0.00 | 64 | 1018.2 |
| 20260902142526 | 17 | 318 | 0.0 | 0.0 | 0.00 | 0.00 | 0.00 | 69 | 1018.1 |
| 20260902141514 | 17 | 323 | 0.0 | 0.0 | 0.00 | 0.00 | 0.00 | 72 | 1018.1 |
| 20260902140504 | 16 | 324 | 0.0 | 0.0 | 0.00 | 0.00 | 0.00 | 73 | 1018.0 |
| 20260902135450 | 15 | 324 | 0.0 | 0.0 | 0.00 | 0.00 | 0.00 | 73 | 1018.0 |
| 20260902134944 | 15 | 324 | 0.0 | 0.0 | 0.00 | 0.00 | 0.00 | 73 | 1018.1 |
| 20260902134438 | 15 | 324 | 0.0 | 0.0 | 0.00 | 0.00 | 0.00 | 73 | 1018.1 |
| 20260902133932 | 15 | 324 | 0.0 | 0.0 | 0.00 | 0.00 | 0.00 | 72 | 1018.0 |
| 20260902133428 | 15 | 324 | 0.0 | 0.0 | 0.00 | 0.00 | 0.00 | 72 | 1018.0 |
| 20260902132922 | 14 | 324 | 0.0 | 0.0 | 0.00 | 0.00 | 0.00 | 72 | 1018.0 |
| 20260902132416 | 14 | 324 | 0.0 | 0.0 | 0.00 | 0.00 | 0.00 | 71 | 1018.0 |
| 20260902131910 | 14 | 324 | 0.0 | 0.0 | 0.00 | 0.00 | 0.00 | 71 | 1017.9 |
| 20260902130856 | 14 | 324 | 0.0 | 0.0 | 0.00 | 0.00 | 0.00 | 70 | 1017.8 |
| 20260902130350 | 14 | 324 | 0.0 | 0.0 | 0.00 | 0.00 | 0.00 | 69 | 1017.6 |
| 20260902125844 | 14 | 324 | 0.0 | 0.0 | 0.00 | 0.00 | 0.00 | 69 | 1017.6 |
| 20260902125338 | 15 | 324 | 0.0 | 0.0 | 0.00 | 0.00 | 0.00 | 69 | 1017.5 |
| 20260902124832 | 15 | 324 | 0.0 | 0.0 | 0.00 | 0.00 | 0.00 | 68 | 1017.5 |
| 20260902124326 | 15 | 324 | 0.0 | 0.0 | 0.00 | 0.00 | 0.00 | 68 | 1017.6 |
| 20260902123821 | 15 | 324 | 0.0 | 0.0 | 0.00 | 0.00 | 0.00 | 68 | 1017.5 |
| 20260902123316 | 15 | 324 | 0.0 | 0.0 | 0.00 | 0.00 | 0.00 | 68 | 1017.5 |
| 20260902122809 | 15 | 324 | 0.0 | 0.0 | 0.00 | 0.00 | 0.00 | 68 | 1017.4 |
| 20260902122305 | 15 | 324 | 0.0 | 0.0 | 0.00 | 0.00 | 0.00 | 68 | 1017.4 |
| 20260902121250 | 15 | 324 | 0.0 | 0.0 | 0.00 | 0.00 | 0.00 | 67 | 1017.2 |
| 20260902120746 | 15 | 324 | 0.0 | 0.0 | 0.00 | 0.00 | 0.00 | 67 | 1017.1 |
| 20260902120246 | 15 | 324 | 0.0 | 0.0 | 0.00 | 0.00 | 0.00 | 67 | 1017.1 |
| 20260902115744 | 15 | 324 | 0.0 | 0.0 | 0.00 | 0.00 | 0.00 | 67 | 1017.1 |
| 20260902115242 | 15 | 324 | 0.0 | 0.0 | 0.00 | 0.00 | 0.00 | 67 | 1017.1 |
| 20260902114741 | 15 | 324 | 0.0 | 0.0 | 0.00 | 0.00 | 0.00 | 67 | 1017.1 |
| 20260902114242 | 15 | 324 | 0.0 | 0.0 | 0.00 | 0.00 | 0.00 | 67 | 1017.1 |
| 20260902113238 | 16 | 324 | 0.0 | 0.0 | 0.00 | 0.00 | 0.00 | 66 | 1017.1 |
| 20260902112736 | 16 | 324 | 0.0 | 0.0 | 0.00 | 0.00 | 0.00 | 66 | 1017.1 |
| 20260902111736 | 16 | 324 | 0.0 | 0.0 | 0.00 | 0.00 | 0.00 | 66 | 1017.1 |
| 20260902111236 | 16 | 324 | 0.0 | 0.0 | 0.00 | 0.00 | 0.00 | 66 | 1016.9 |
| 20260902110735 | 16 | 324 | 0.0 | 0.0 | 0.00 | 0.00 | 0.00 | 66 | 1016.8 |
| 20260902105731 | 16 | 324 | 0.0 | 0.0 | 0.00 | 0.00 | 0.00 | 66 | 1016.8 |
| 20260902105232 | 16 | 324 | 0.0 | 0.0 | 0.00 | 0.00 | 0.00 | 66 | 1016.7 |
| 20260902104732 | 16 | 324 | 0.0 | 0.0 | 0.00 | 0.00 | 0.00 | 65 | 1016.7 |
| 20260902104232 | 16 | 324 | 0.0 | 0.0 | 0.00 | 0.00 | 0.00 | 65 | 1016.8 |
| 20260902103731 | 16 | 328 | 0.0 | 0.0 | 0.00 | 0.00 | 0.00 | 65 | 1016.8 |
| 20260902103231 | 16 | 328 | 0.0 | 0.0 | 0.00 | 0.00 | 0.00 | 65 | 1016.7 |
| 20260902102231 | 16 | 328 | 0.0 | 0.0 | 0.00 | 0.00 | 0.00 | 65 | 1016.7 |
| 20260902101733 | 16 | 328 | 0.0 | 0.0 | 0.00 | 0.00 | 0.00 | 65 | 1016.7 |
| 20260902101231 | 16 | 328 | 0.0 | 0.0 | 0.00 | 0.00 | 0.00 | 64 | 1016.7 |
| 20260902100732 | 16 | 328 | 0.0 | 0.0 | 0.00 | 0.00 | 0.00 | 64 | 1016.6 |
| 20260902100231 | 16 | 328 | 0.0 | 0.0 | 0.00 | 0.00 | 0.00 | 64 | 1016.7 |
| 20260902095733 | 16 | 328 | 0.0 | 0.0 | 0.00 | 0.00 | 0.00 | 64 | 1016.7 |
| 20260902095232 | 16 | 329 | 0.0 | 0.0 | 0.00 | 0.00 | 0.00 | 63 | 1016.7 |
| 20260902094732 | 16 | 329 | 0.0 | 0.0 | 0.00 | 0.00 | 0.00 | 63 | 1016.7 |
| 20260902094232 | 16 | 329 | 0.0 | 0.0 | 0.00 | 0.00 | 0.00 | 63 | 1016.7 |
| 20260902093732 | 16 | 329 | 0.0 | 0.0 | 0.00 | 0.00 | 0.00 | 63 | 1016.8 |
| 20260902093233 | 16 | 329 | 0.0 | 0.0 | 0.00 | 0.00 | 0.00 | 62 | 1016.8 |
| 20260902092725 | 17 | 329 | 0.0 | 0.0 | 0.00 | 0.00 | 0.00 | 62 | 1016.9 |
| 20260902092221 | 17 | 329 | 0.0 | 0.0 | 0.00 | 0.00 | 0.00 | 62 | 1016.8 |
| 20260902091714 | 17 | 329 | 0.0 | 0.0 | 0.00 | 0.00 | 0.00 | 62 | 1016.9 |
| 20260902091209 | 17 | 329 | 0.0 | 0.0 | 0.00 | 0.00 | 0.00 | 62 | 1016.9 |
| 20260902090704 | 17 | 329 | 0.0 | 0.0 | 0.00 | 0.00 | 0.00 | 61 | 1016.8 |
| 20260902090157 | 17 | 329 | 0.0 | 0.0 | 0.00 | 0.00 | 0.00 | 61 | 1016.8 |
| 20260902085652 | 17 | 329 | 0.0 | 0.0 | 0.00 | 0.00 | 0.00 | 60 | 1016.6 |
| 20260902084640 | 17 | 329 | 0.0 | 0.0 | 0.00 | 0.00 | 0.00 | 60 | 1016.6 |
| 20260902084133 | 17 | 329 | 0.0 | 0.0 | 0.00 | 0.00 | 0.00 | 60 | 1016.6 |
| 20260902083121 | 17 | 329 | 0.0 | 0.0 | 0.00 | 0.00 | 0.00 | 60 | 1016.6 |
| 20260902082615 | 17 | 329 | 0.0 | 0.0 | 0.00 | 0.00 | 0.00 | 59 | 1016.6 |
| 20260902082110 | 17 | 329 | 0.0 | 0.0 | 0.00 | 0.00 | 0.00 | 59 | 1016.6 |
| 20260902081605 | 18 | 329 | 0.0 | 0.0 | 0.00 | 0.00 | 0.00 | 59 | 1016.6 |
| 20260902081058 | 18 | 329 | 0.0 | 0.0 | 0.00 | 0.00 | 0.00 | 59 | 1016.6 |
| 20260902080552 | 18 | 329 | 0.0 | 0.0 | 0.00 | 0.00 | 0.00 | 59 | 1016.7 |
| 20260902080045 | 18 | 329 | 0.0 | 0.0 | 0.00 | 0.00 | 0.00 | 59 | 1016.7 |
| 20260902075035 | 18 | 329 | 0.0 | 0.0 | 0.00 | 0.00 | 0.00 | 59 | 1016.8 |
| 20260902074528 | 18 | 329 | 0.0 | 0.0 | 0.00 | 0.00 | 0.00 | 59 | 1016.8 |
| 20260902074022 | 18 | 329 | 0.0 | 0.0 | 0.00 | 0.00 | 0.00 | 59 | 1016.8 |
| 20260902073515 | 18 | 329 | 0.0 | 0.0 | 0.00 | 0.00 | 0.00 | 59 | 1016.8 |
| 20260902073010 | 18 | 329 | 0.0 | 0.0 | 0.00 | 0.00 | 0.00 | 59 | 1016.8 |
| 20260902072503 | 18 | 329 | 0.0 | 0.0 | 0.00 | 0.00 | 0.00 | 58 | 1016.7 |
| 20260902071959 | 19 | 329 | 0.0 | 0.0 | 0.00 | 0.00 | 0.00 | 58 | 1016.6 |
| 20260902070946 | 19 | 329 | 0.0 | 0.0 | 0.00 | 0.00 | 0.00 | 57 | 1016.5 |
| 20260902070439 | 19 | 329 | 0.0 | 0.0 | 0.00 | 0.00 | 0.00 | 57 | 1016.4 |
| 20260902065939 | 19 | 329 | 0.0 | 0.0 | 0.00 | 0.00 | 0.00 | 57 | 1016.4 |
| 20260902064437 | 19 | 328 | 0.0 | 0.0 | 0.00 | 0.00 | 0.00 | 59 | 1016.4 |
| 20260902063933 | 19 | 329 | 0.0 | 0.0 | 0.00 | 0.00 | 0.00 | 59 | 1016.4 |
| 20260902062934 | 19 | 328 | 0.0 | 0.0 | 0.00 | 0.00 | 0.00 | 61 | 1016.2 |
| 20260902061929 | 19 | 338 | 0.0 | 0.0 | 0.00 | 0.00 | 0.00 | 61 | 1016.2 |
| 20260902061427 | 19 | 338 | 0.0 | 0.0 | 0.00 | 0.00 | 0.00 | 61 | 1016.1 |
| 20260902060427 | 19 | 338 | 0.0 | 0.0 | 0.00 | 0.00 | 0.00 | 61 | 1016.0 |
| 20260902055927 | 20 | 337 | 0.0 | 0.0 | 0.00 | 0.00 | 0.00 | 60 | 1016.2 |
| 20260902055426 | 20 | 13 | 0.0 | 0.0 | 0.00 | 0.00 | 0.00 | 59 | 1016.1 |
| 20260902054924 | 20 | 13 | 0.0 | 0.0 | 0.00 | 0.00 | 0.00 | 59 | 1016.1 |
| 20260902054423 | 20 | 13 | 0.0 | 0.0 | 0.00 | 0.00 | 0.00 | 59 | 1016.1 |
| 20260902053424 | 20 | 13 | 0.0 | 0.0 | 0.00 | 0.00 | 0.00 | 58 | 1016.1 |
| 20260902052923 | 20 | 13 | 0.0 | 0.0 | 0.00 | 0.00 | 0.00 | 58 | 1016.1 |
| 20260902052424 | 20 | 13 | 0.0 | 0.0 | 0.00 | 0.00 | 0.00 | 57 | 1016.1 |
| 20260902051424 | 20 | 13 | 0.0 | 0.0 | 0.00 | 0.00 | 0.00 | 57 | 1016.2 |
| 20260902050924 | 20 | 13 | 0.0 | 0.0 | 0.00 | 0.00 | 0.00 | 57 | 1016.2 |
| 20260902050424 | 21 | 13 | 0.0 | 0.0 | 0.00 | 0.00 | 0.00 | 57 | 1016.4 |
| 20260902045923 | 21 | 13 | 0.0 | 0.0 | 0.00 | 0.00 | 0.00 | 56 | 1016.4 |
| 20260902044924 | 21 | 13 | 0.0 | 0.0 | 0.00 | 0.00 | 0.00 | 56 | 1016.4 |
| 20260902043924 | 21 | 13 | 0.0 | 0.0 | 0.00 | 0.00 | 0.00 | 55 | 1016.5 |
| 20260902043417 | 21 | 13 | 0.0 | 0.0 | 0.00 | 0.00 | 0.00 | 55 | 1016.6 |
| 20260902042911 | 21 | 13 | 0.0 | 0.0 | 0.00 | 0.00 | 0.00 | 54 | 1016.7 |
| 20260902042405 | 21 | 5 | 0.0 | 0.0 | 0.00 | 0.00 | 0.00 | 54 | 1016.7 |
| 20260902041858 | 22 | 5 | 0.0 | 0.0 | 0.00 | 0.00 | 0.00 | 54 | 1016.7 |
| 20260902041354 | 22 | 5 | 0.0 | 0.0 | 0.00 | 0.00 | 0.00 | 53 | 1016.7 |
| 20260902040847 | 22 | 5 | 0.0 | 0.0 | 0.00 | 0.00 | 0.00 | 53 | 1016.7 |
| 20260902040340 | 22 | 5 | 0.0 | 0.0 | 0.00 | 0.00 | 0.00 | 53 | 1016.7 |
| 20260902035835 | 22 | 5 | 0.0 | 0.0 | 0.00 | 0.00 | 0.00 | 53 | 1016.6 |
| 20260902033811 | 22 | 5 | 0.0 | 0.0 | 0.00 | 0.03 | 0.00 | 51 | 1016.7 |
| 20260902033305 | 22 | 5 | 0.0 | 0.0 | 0.00 | 0.03 | 0.00 | 51 | 1016.7 |
| 20260902032758 | 23 | 5 | 0.0 | 0.0 | 0.00 | 0.03 | 0.00 | 50 | 1016.6 |
| 20260902031746 | 23 | 295 | 0.0 | 0.0 | 0.00 | 0.05 | 0.00 | 50 | 1016.6 |
| 20260902031241 | 23 | 295 | 0.0 | 0.0 | 0.00 | 0.08 | 0.00 | 50 | 1016.7 |
| 20260902030734 | 23 | 295 | 0.0 | 0.0 | 0.00 | 0.08 | 0.00 | 49 | 1016.7 |
| 20260902025724 | 24 | 295 | 0.0 | 0.0 | 0.00 | 0.08 | 0.00 | 48 | 1016.6 |
| 20260902024710 | 24 | 295 | 0.0 | 0.0 | 0.00 | 0.08 | 0.00 | 46 | 1016.5 |
| 20260902024205 | 25 | 295 | 0.0 | 0.0 | 0.00 | 0.08 | 0.00 | 46 | 1016.2 |
| 20260902023659 | 25 | 295 | 0.0 | 0.0 | 0.00 | 0.08 | 0.00 | 47 | 1016.1 |
| 20260902023153 | 25 | 295 | 0.0 | 0.0 | 0.00 | 0.08 | 0.00 | 46 | 1016.1 |
| 20260902022647 | 25 | 295 | 0.0 | 0.0 | 0.00 | 0.08 | 0.00 | 45 | 1016.1 |
| 20260902022142 | 25 | 295 | 0.0 | 0.0 | 0.00 | 0.08 | 0.00 | 44 | 1016.1 |
| 20260902021634 | 25 | 293 | 0.0 | 0.0 | 0.00 | 0.08 | 0.00 | 43 | 1016.1 |
| 20260902021129 | 26 | 293 | 0.0 | 0.0 | 0.00 | 0.08 | 0.00 | 42 | 1016.1 |
| 20260902020623 | 26 | 293 | 0.0 | 0.0 | 0.00 | 0.10 | 0.00 | 41 | 1016.0 |
| 20260902020117 | 26 | 293 | 0.0 | 0.0 | 0.00 | 0.15 | 0.00 | 41 | 1016.0 |
| 20260902015104 | 26 | 293 | 0.0 | 0.0 | 0.00 | 0.15 | 0.00 | 39 | 1015.8 |
| 20260902014559 | 26 | 293 | 0.0 | 0.0 | 0.00 | 0.18 | 0.00 | 38 | 1015.8 |
| 20260902014054 | 26 | 293 | 0.0 | 0.0 | 0.00 | 0.18 | 0.00 | 38 | 1015.8 |
| 20260902013547 | 27 | 293 | 0.0 | 0.0 | 0.00 | 0.18 | 0.00 | 38 | 1015.9 |
| 20260902013041 | 27 | 293 | 0.0 | 0.0 | 0.00 | 0.18 | 0.00 | 37 | 1015.7 |
| 20260902012537 | 27 | 293 | 0.0 | 0.0 | 0.00 | 0.20 | 0.00 | 37 | 1015.7 |
| 20260902012029 | 27 | 293 | 0.0 | 0.0 | 0.00 | 0.20 | 0.00 | 37 | 1015.7 |
| 20260902011523 | 27 | 293 | 0.0 | 0.0 | 0.00 | 0.20 | 0.00 | 36 | 1015.5 |
| 20260902011017 | 27 | 293 | 0.0 | 0.0 | 0.00 | 0.20 | 0.00 | 36 | 1015.5 |
| 20260902010512 | 28 | 293 | 0.0 | 0.0 | 0.00 | 0.20 | 0.00 | 35 | 1015.4 |
| 20260902010006 | 28 | 293 | 0.0 | 0.0 | 0.00 | 0.20 | 0.00 | 35 | 1015.4 |
| 20260902005459 | 28 | 293 | 0.0 | 0.0 | 0.00 | 0.20 | 0.00 | 34 | 1015.3 |
| 20260902004953 | 28 | 292 | 0.0 | 0.0 | 0.00 | 0.20 | 0.00 | 33 | 1015.4 |
| 20260902003942 | 29 | 292 | 0.0 | 0.0 | 0.00 | 0.20 | 0.00 | 32 | 1015.4 |
| 20260902002929 | 29 | 292 | 0.0 | 0.0 | 0.00 | 0.20 | 0.00 | 32 | 1015.4 |
| 20260902002422 | 29 | 292 | 0.0 | 0.0 | 0.00 | 0.20 | 0.00 | 31 | 1015.3 |
| 20260902001916 | 30 | 292 | 0.0 | 0.0 | 0.00 | 0.20 | 0.00 | 29 | 1015.3 |
| 20260902001411 | 30 | 292 | 0.0 | 0.0 | 0.00 | 0.20 | 0.00 | 29 | 1015.4 |
| 20260902000905 | 30 | 292 | 0.0 | 0.0 | 0.00 | 0.20 | 0.00 | 29 | 1015.4 |
| 20260902000359 | 30 | 292 | 0.0 | 0.0 | 0.00 | 0.20 | 0.00 | 28 | 1015.4 |
| 20260901235346 | 30 | 292 | 0.0 | 0.0 | 0.00 | 0.20 | 0.00 | 29 | 1015.4 |
| 20260901234840 | 30 | 292 | 0.0 | 0.0 | 0.00 | 0.20 | 0.00 | 29 | 1015.4 |
| 20260901234335 | 30 | 290 | 0.0 | 0.0 | 0.00 | 0.20 | 0.00 | 32 | 1015.5 |
| 20260901233830 | 29 | 290 | 0.0 | 0.0 | 0.00 | 0.20 | 0.00 | 29 | 1015.5 |
| 20260901233323 | 29 | 290 | 0.0 | 0.0 | 0.00 | 0.20 | 0.00 | 30 | 1015.5 |
| 20260901232817 | 30 | 290 | 0.0 | 0.0 | 0.00 | 0.20 | 0.00 | 28 | 1015.5 |
| 20260901231805 | 30 | 294 | 0.0 | 0.0 | 0.00 | 0.20 | 0.00 | 28 | 1015.5 |
| 20260901231259 | 30 | 294 | 0.0 | 0.0 | 0.00 | 0.20 | 0.00 | 26 | 1015.5 |
| 20260901230754 | 30 | 294 | 0.0 | 0.0 | 0.00 | 0.20 | 0.00 | 27 | 1015.5 |
| 20260901230246 | 30 | 271 | 0.0 | 0.0 | 0.00 | 0.20 | 0.00 | 30 | 1015.5 |
| 20260901225234 | 30 | 271 | 0.0 | 0.0 | 0.00 | 0.20 | 0.00 | 28 | 1015.5 |
| 20260901224731 | 30 | 271 | 0.0 | 0.0 | 0.00 | 0.20 | 0.00 | 27 | 1015.7 |
| 20260901224231 | 30 | 271 | 0.0 | 0.0 | 0.00 | 0.20 | 0.00 | 29 | 1015.7 |
| 20260901223730 | 30 | 0 | 0.0 | 0.0 | 0.00 | 0.20 | 0.00 | 28 | 1015.7 |
| 20260901222225 | 30 | 283 | 0.0 | 0.0 | 0.00 | 0.20 | 0.00 | 30 | 1015.8 |
| 20260901221723 | 30 | 275 | 0.0 | 0.0 | 0.00 | 0.20 | 0.00 | 29 | 1015.8 |
| 20260901221221 | 30 | 275 | 0.0 | 0.0 | 0.00 | 0.20 | 0.00 | 36 | 1015.8 |
| 20260901220723 | 30 | 275 | 0.0 | 0.0 | 0.00 | 0.20 | 0.00 | 33 | 1015.9 |
| 20260901220218 | 30 | 275 | 0.0 | 0.0 | 0.00 | 0.20 | 0.00 | 30 | 1015.9 |
| 20260901215717 | 30 | 275 | 0.0 | 0.0 | 0.00 | 0.20 | 0.00 | 30 | 1016.0 |